This is the latest recevied weather packets stored in our database for station/object WV8BRW. If no packets are shown the sender has not sent any weather packets the latest 10 day(s).
| Time | Temp. | Humidity | Pressure | Rain* | Wind** | Luminosity | Snow |
|---|---|---|---|---|---|---|---|
| 1777893566 | 6.67° C | 95% | 1011.8 hPa | 0 mm | - | 59 W/m² | - |
| 1777893262 | 6.67° C | 96% | 1011.7 hPa | 0 mm | - | 50 W/m² | - |
| 1777892959 | 6.11° C | 96% | 1011.6 hPa | 0 mm | - | 41 W/m² | - |
| 1777892656 | 6.11° C | 96% | 1011.4 hPa | 0 mm | - | 32 W/m² | - |
| 1777892351 | 6.11° C | 96% | 1011.7 hPa | 0 mm | - | 25 W/m² | - |
| 1777892048 | 6.11° C | 96% | 1011.4 hPa | 0 mm | - | 17 W/m² | - |
| 1777891745 | 6.11° C | 96% | 1011.8 hPa | 0 mm | - | 12 W/m² | - |
| 1777891441 | 6.11° C | 95% | 1011.8 hPa | 0 mm | - | 8 W/m² | - |
| 1777891137 | 6.11° C | 95% | 1011.7 hPa | 0 mm | - | 5 W/m² | - |
| 1777890832 | 6.11° C | 96% | 1011.5 hPa | 0 mm | - | 3 W/m² | - |
| 1777890528 | 6.11° C | 95% | 1011.6 hPa | 0 mm | - | 1 W/m² | - |
| 1777890223 | 6.11° C | 94% | 1011.9 hPa | 0 mm | - | 0 W/m² | - |
| 1777889920 | 6.11° C | 94% | 1011.8 hPa | 0 mm | - | 0 W/m² | - |
| 1777889618 | 6.67° C | 93% | 1011.8 hPa | 0 mm | - | 0 W/m² | - |
| 1777889315 | 6.11° C | 93% | 1011.6 hPa | 0 mm | - | 0 W/m² | - |
| 1777889012 | 6.11° C | 94% | 1011.8 hPa | 0 mm | - | 0 W/m² | - |
| 1777888710 | 6.11° C | 95% | 1011.8 hPa | 0 mm | - | 0 W/m² | - |
| 1777888405 | 6.11° C | 95% | 1011.9 hPa | 0 mm | - | 0 W/m² | - |
| 1777888102 | 6.11° C | 95% | 1011.9 hPa | 0 mm | - | 0 W/m² | - |
| 1777887800 | 6.11° C | 95% | 1012.1 hPa | 0 mm | - | 0 W/m² | - |
| 1777887496 | 6.67° C | 94% | 1012.3 hPa | 0 mm | - | 0 W/m² | - |
| 1777887192 | 6.11° C | 95% | 1012.2 hPa | 0 mm | - | 0 W/m² | - |
| 1777886888 | 6.11° C | 95% | 1012.2 hPa | 0 mm | - | 0 W/m² | - |
| 1777886583 | 6.11° C | 95% | 1012 hPa | 0 mm | - | 0 W/m² | - |
| 1777886281 | 6.11° C | 96% | 1012.2 hPa | 0 mm | - | 0 W/m² | - |
* Rain latest hour (hover to see other rain measurements)
** Current wind speed in m/s (hover to see current wind gust speed)